[vc_row][vc_column width=”2/3″]

Nesenie raksti

Ziņas

[/vc_column][vc_column width=”1/3″ el_class=”sticky-column”]

Par Gliding.lv

[vc_column_text]Gliding.lv ir interneta vietne par planieriem un planierismu. Šeit būs atrodama informācija par iespējām pamēģināt, iesaistīties un organizēt planierisma aktivitātes. Izmanto Gliding.lv forumu, ja Tev ir kāda tēma diskusijai vai jautājums. Gliding.lv merķis ir informēt un apvienot planierisma interesentus, nodrošinot un apmainoties ar aktuālāko un arī bijušo. Lidojam![/vc_column_text][vc_column_text]
[/vc_column_text]

METAR

EVRA 181220Z 36008KT 330V040 CAVOK 24/11 Q1017 NOSIG

EVLA 181220Z AUTO 33008KT 300V360 CAVOK 24/10 Q1016

EVVA 181220Z AUTO 35011KT CAVOK 21/09 Q1017

Nesenie raksti

[/vc_column][/vc_row]

Pāriet uz rīkjoslu